Time,TemperatureF,DewpointF,PressureIn,WindDirection,WindDirectionDegrees,WindSpeedMPH,WindSpeedGustMPH,Humidity,HourlyPrecipIn,Conditions,Clouds,dailyrainin,SoftwareType,DateUTC
2013-09-02 00:03:00,76.4,67.5,29.86,SSW,202,0.0,1.0,74,0.00,,,-99.99,WeatherLink 5.7,2013-09-02 04:03:00,
2013-09-02 00:13:00,76.3,67.4,29.85,North,-999,0.0,0.0,74,0.00,,,-99.99,WeatherLink 5.7,2013-09-02 04:13:00,
2013-09-02 00:23:00,76.3,67.8,29.85,SSW,202,0.0,2.0,75,0.00,,,-99.99,WeatherLink 5.7,2013-09-02 04:23:00,
2013-09-02 00:33:00,76.3,68.6,29.85,SSW,202,0.0,2.0,77,0.00,,,-99.99,WeatherLink 5.7,2013-09-02 04:33:00,
2013-09-02 00:43:00,76.3,68.9,29.85,SSW,202,0.0,1.0,78,0.00,,,-99.99,WeatherLink 5.7,2013-09-02 04:43:00,
2013-09-02 00:53:00,76.1,69.1,29.85,North,-999,0.0,1.0,79,0.00,,,-99.99,WeatherLink 5.7,2013-09-02 04:53:00,
2013-09-02 01:03:00,75.8,69.2,29.85,North,-999,0.0,0.0,80,0.00,,,-99.99,WeatherLink 5.7,2013-09-02 05:03:00,
2013-09-02 01:13:00,75.6,69.4,29.84,SSW,202,0.0,1.0,81,0.00,,,-99.99,WeatherLink 5.7,2013-09-02 05:13:00,
2013-09-02 01:23:00,75.5,69.6,29.85,SSW,202,0.0,1.0,82,0.00,,,-99.99,WeatherLink 5.7,2013-09-02 05:23:00,
2013-09-02 01:33:00,75.3,69.4,29.85,SSW,202,0.0,1.0,82,0.00,,,-99.99,WeatherLink 5.7,2013-09-02 05:33:00,
2013-09-02 01:43:00,75.3,69.8,29.84,SSW,202,0.0,2.0,83,0.00,,,-99.99,WeatherLink 5.7,2013-09-02 05:43:00,
2013-09-02 01:53:00,75.6,70.1,29.84,SSW,202,1.0,5.0,83,0.00,,,-99.99,WeatherLink 5.7,2013-09-02 05:53:00,
2013-09-02 02:03:00,75.9,70.4,29.84,SSW,202,0.0,4.0,83,0.00,,,-99.99,WeatherLink 5.7,2013-09-02 06:03:00,
2013-09-02 02:13:00,76.1,70.6,29.84,SSW,202,0.0,2.0,83,0.00,,,-99.99,WeatherLink 5.7,2013-09-02 06:13:00,
2013-09-02 02:24:00,75.9,70.7,29.85,SSW,202,1.0,4.0,84,0.00,,,-99.99,WeatherLink 5.7,2013-09-02 06:24:00,
2013-09-02 02:33:00,75.7,70.9,29.85,SSW,202,0.0,3.0,85,0.00,,,-99.99,WeatherLink 5.7,2013-09-02 06:33:00,
2013-09-02 02:43:00,75.6,70.8,29.84,SSW,202,0.0,2.0,85,0.00,,,-99.99,WeatherLink 5.7,2013-09-02 06:43:00,
2013-09-02 02:54:00,75.6,71.1,29.84,SSW,202,0.0,1.0,86,0.00,,,-99.99,WeatherLink 5.7,2013-09-02 06:54:00,
2013-09-02 03:03:00,75.7,71.6,29.83,SSW,202,0.0,1.0,87,0.00,,,-99.99,WeatherLink 5.7,2013-09-02 07:03:00,
2013-09-02 03:13:00,75.7,71.6,29.83,North,-999,0.0,0.0,87,0.00,,,-99.99,WeatherLink 5.7,2013-09-02 07:13:00,
2013-09-02 03:23:00,75.4,71.6,29.83,North,-999,0.0,0.0,88,0.00,,,-99.99,WeatherLink 5.7,2013-09-02 07:23:00,
2013-09-02 03:33:00,75.5,71.7,29.83,SSW,202,0.0,2.0,88,0.00,,,-99.99,WeatherLink 5.7,2013-09-02 07:33:00,
2013-09-02 03:43:00,75.7,71.9,29.82,SSW,202,2.0,5.0,88,0.00,,,-99.99,WeatherLink 5.7,2013-09-02 07:43:00,
2013-09-02 03:53:00,75.8,72.3,29.82,SSW,202,0.0,2.0,89,0.00,,,-99.99,WeatherLink 5.7,2013-09-02 07:53:00,
2013-09-02 04:03:00,75.8,72.3,29.83,SSW,202,0.0,2.0,89,0.00,,,-99.99,WeatherLink 5.7,2013-09-02 08:03:00,
2013-09-02 04:13:00,75.6,72.5,29.82,SSW,202,1.0,3.0,90,0.00,,,-99.99,WeatherLink 5.7,2013-09-02 08:13:00,
2013-09-02 04:23:00,75.5,72.4,29.83,SSW,202,0.0,1.0,90,0.00,,,-99.99,WeatherLink 5.7,2013-09-02 08:23:00,
2013-09-02 04:33:00,75.4,72.3,29.83,North,-999,0.0,1.0,90,0.00,,,-99.99,WeatherLink 5.7,2013-09-02 08:33:00,
2013-09-02 04:43:00,75.6,72.5,29.83,SSW,202,0.0,2.0,90,0.00,,,-99.99,WeatherLink 5.7,2013-09-02 08:43:00,
2013-09-02 04:53:00,75.7,72.6,29.82,SSW,202,0.0,4.0,90,0.00,,,-99.99,WeatherLink 5.7,2013-09-02 08:53:00,
2013-09-02 05:03:00,75.9,72.8,29.81,SSW,202,0.0,2.0,90,0.00,,,-99.99,WeatherLink 5.7,2013-09-02 09:03:00,
2013-09-02 05:13:00,75.8,72.7,29.81,SSW,202,1.0,4.0,90,0.00,,,-99.99,WeatherLink 5.7,2013-09-02 09:13:00,
2013-09-02 05:23:00,75.7,72.9,29.82,SSW,202,1.0,3.0,91,0.00,,,-99.99,WeatherLink 5.7,2013-09-02 09:23:00,
2013-09-02 05:33:00,75.8,72.7,29.82,SSW,202,0.0,3.0,90,0.00,,,-99.99,WeatherLink 5.7,2013-09-02 09:33:00,
2013-09-02 05:43:00,75.8,72.7,29.82,SSW,202,0.0,3.0,90,0.00,,,-99.99,WeatherLink 5.7,2013-09-02 09:43:00,
2013-09-02 05:53:00,75.8,72.7,29.82,SSW,202,0.0,3.0,90,0.00,,,-99.99,WeatherLink 5.7,2013-09-02 09:53:00,
2013-09-02 06:03:00,75.7,72.6,29.82,SSW,202,1.0,4.0,90,0.00,,,-99.99,WeatherLink 5.7,2013-09-02 10:03:00,
2013-09-02 06:13:00,75.7,72.6,29.82,SSW,202,0.0,2.0,90,0.00,,,-99.99,WeatherLink 5.7,2013-09-02 10:13:00,
2013-09-02 06:23:00,75.5,72.7,29.83,SSW,202,1.0,4.0,91,0.00,,,-99.99,WeatherLink 5.7,2013-09-02 10:23:00,
2013-09-02 06:33:00,75.3,72.8,29.83,SSW,202,0.0,3.0,92,0.00,,,-99.99,WeatherLink 5.7,2013-09-02 10:33:00,
2013-09-02 06:43:00,75.2,72.7,29.83,SSW,202,0.0,2.0,92,0.00,,,-99.99,WeatherLink 5.7,2013-09-02 10:43:00,
2013-09-02 06:53:00,75.1,72.6,29.82,SSW,202,0.0,1.0,92,0.00,,,-99.99,WeatherLink 5.7,2013-09-02 10:53:00,
2013-09-02 07:03:00,75.0,72.8,29.82,SSW,202,0.0,1.0,93,0.00,,,-99.99,WeatherLink 5.7,2013-09-02 11:03:00,
2013-09-02 07:13:00,75.0,72.8,29.82,SSW,202,0.0,2.0,93,0.00,,,-99.99,WeatherLink 5.7,2013-09-02 11:13:00,
2013-09-02 07:23:00,75.1,72.9,29.83,SSW,202,0.0,2.0,93,0.00,,,-99.99,WeatherLink 5.7,2013-09-02 11:23:00,
2013-09-02 07:33:00,75.1,72.9,29.84,SSW,202,0.0,2.0,93,0.00,,,-99.99,WeatherLink 5.7,2013-09-02 11:33:00,
2013-09-02 07:43:00,75.3,72.8,29.84,North,-999,0.0,0.0,92,0.00,,,-99.99,WeatherLink 5.7,2013-09-02 11:43:00,
2013-09-02 07:53:00,75.4,72.6,29.84,SSW,202,0.0,3.0,91,0.00,,,-99.99,WeatherLink 5.7,2013-09-02 11:53:00,
2013-09-02 08:03:00,75.5,72.7,29.83,SSW,202,0.0,3.0,91,0.00,,,-99.99,WeatherLink 5.7,2013-09-02 12:03:00,
2013-09-02 08:13:00,75.5,73.0,29.83,SSW,202,0.0,2.0,92,0.00,,,-99.99,WeatherLink 5.7,2013-09-02 12:13:00,
2013-09-02 08:24:00,75.8,73.0,29.83,SSW,202,0.0,3.0,91,0.00,,,-99.99,WeatherLink 5.7,2013-09-02 12:24:00,
2013-09-02 08:33:00,75.9,72.8,29.83,SSW,202,0.0,3.0,90,0.00,,,-99.99,WeatherLink 5.7,2013-09-02 12:33:00,
2013-09-02 08:43:00,76.2,72.7,29.83,SSW,202,0.0,2.0,89,0.00,,,-99.99,WeatherLink 5.7,2013-09-02 12:43:00,
2013-09-02 08:53:00,76.4,72.2,29.83,SSW,202,0.0,3.0,87,0.00,,,-99.99,WeatherLink 5.7,2013-09-02 12:53:00,
2013-09-02 09:03:00,76.8,71.9,29.83,SSW,202,0.0,2.0,85,0.00,,,-99.99,WeatherLink 5.7,2013-09-02 13:03:00,
2013-09-02 09:13:00,77.2,72.0,29.84,SSW,202,3.0,6.0,84,0.00,,,-99.99,WeatherLink 5.7,2013-09-02 13:13:00,
2013-09-02 09:23:00,77.2,72.0,29.84,SSW,202,2.0,5.0,84,0.00,,,-99.99,WeatherLink 5.7,2013-09-02 13:23:00,
2013-09-02 09:33:00,77.3,72.1,29.83,SSW,202,2.0,6.0,84,0.00,,,-99.99,WeatherLink 5.7,2013-09-02 13:33:00,
2013-09-02 09:43:00,77.1,71.9,29.83,SSW,202,0.0,3.0,84,0.00,,,-99.99,WeatherLink 5.7,2013-09-02 13:43:00,
2013-09-02 09:54:00,77.1,71.2,29.82,SSW,202,0.0,2.0,82,0.00,,,-99.99,WeatherLink 5.7,2013-09-02 13:54:00,
2013-09-02 10:03:00,77.4,71.1,29.82,SSW,202,0.0,2.0,81,0.00,,,-99.99,WeatherLink 5.7,2013-09-02 14:03:00,
2013-09-02 10:13:00,77.4,71.5,29.83,SSW,202,0.0,2.0,82,0.00,,,-99.99,WeatherLink 5.7,2013-09-02 14:13:00,
2013-09-02 10:23:00,77.6,71.7,29.83,SSW,202,0.0,4.0,82,0.00,,,-99.99,WeatherLink 5.7,2013-09-02 14:23:00,
2013-09-02 10:34:00,78.2,71.5,29.83,SSW,202,0.0,2.0,80,0.00,,,-99.99,WeatherLink 5.7,2013-09-02 14:34:00,
2013-09-02 10:43:00,79.1,70.5,29.83,SSW,202,0.0,3.0,75,0.00,,,-99.99,WeatherLink 5.7,2013-09-02 14:43:00,
2013-09-02 10:53:00,79.4,70.8,29.83,SSW,202,0.0,2.0,75,0.00,,,-99.99,WeatherLink 5.7,2013-09-02 14:53:00,
2013-09-02 11:03:00,80.0,71.4,29.83,SSW,202,0.0,3.0,75,0.00,,,-99.99,WeatherLink 5.7,2013-09-02 15:03:00,
2013-09-02 11:13:00,80.2,71.2,29.83,SSW,202,0.0,3.0,74,0.00,,,-99.99,WeatherLink 5.7,2013-09-02 15:13:00,
2013-09-02 11:23:00,80.0,71.0,29.83,SSW,202,0.0,3.0,74,0.00,,,-99.99,WeatherLink 5.7,2013-09-02 15:23:00,
2013-09-02 11:33:00,80.3,70.9,29.83,SSW,202,1.0,4.0,73,0.00,,,-99.99,WeatherLink 5.7,2013-09-02 15:33:00,
2013-09-02 11:44:00,80.5,70.6,29.83,SSW,202,1.0,5.0,72,0.00,,,-99.99,WeatherLink 5.7,2013-09-02 15:44:00,
2013-09-02 11:53:00,80.6,70.3,29.83,SSW,202,1.0,4.0,71,0.00,,,-99.99,WeatherLink 5.7,2013-09-02 15:53:00,
2013-09-02 12:03:00,80.8,70.1,29.82,SSW,202,0.0,3.0,70,0.00,,,-99.99,WeatherLink 5.7,2013-09-02 16:03:00,
2013-09-02 12:13:00,81.2,70.1,29.82,SSW,202,1.0,3.0,69,0.00,,,-99.99,WeatherLink 5.7,2013-09-02 16:13:00,
2013-09-02 12:23:00,81.4,70.2,29.82,SSW,202,0.0,3.0,69,0.00,,,-99.99,WeatherLink 5.7,2013-09-02 16:23:00,
2013-09-02 12:33:00,82.1,69.6,29.81,SSW,202,1.0,3.0,66,0.00,,,-99.99,WeatherLink 5.7,2013-09-02 16:33:00,
2013-09-02 12:43:00,82.2,70.1,29.81,SSW,202,2.0,6.0,67,0.00,,,-99.99,WeatherLink 5.7,2013-09-02 16:43:00,
2013-09-02 12:53:00,81.6,69.6,29.80,SSW,202,0.0,3.0,67,0.00,,,-99.99,WeatherLink 5.7,2013-09-02 16:53:00,
2013-09-02 13:03:00,81.5,69.9,29.80,SSW,202,1.0,5.0,68,0.00,,,-99.99,WeatherLink 5.7,2013-09-02 17:03:00,
2013-09-02 13:13:00,81.4,69.8,29.80,SSW,202,1.0,4.0,68,0.00,,,-99.99,WeatherLink 5.7,2013-09-02 17:13:00,
2013-09-02 13:23:00,81.1,70.0,29.80,SSW,202,1.0,4.0,69,0.00,,,-99.99,WeatherLink 5.7,2013-09-02 17:23:00,
2013-09-02 13:33:00,80.7,70.4,29.82,SSW,202,1.0,4.0,71,0.00,,,-99.99,WeatherLink 5.7,2013-09-02 17:33:00,
2013-09-02 13:43:00,80.3,70.4,29.82,SSW,202,3.0,7.0,72,0.00,,,-99.99,WeatherLink 5.7,2013-09-02 17:43:00,
2013-09-02 13:53:00,79.8,70.0,29.82,SW,225,3.0,10.0,72,0.00,,,-99.99,WeatherLink 5.7,2013-09-02 17:53:00,
2013-09-02 14:03:00,78.6,70.0,29.82,WSW,247,3.0,8.0,75,0.02,,,-99.99,WeatherLink 5.7,2013-09-02 18:03:00,
2013-09-02 14:13:00,77.3,70.3,29.82,WSW,247,3.0,5.0,79,0.05,,,-99.99,WeatherLink 5.7,2013-09-02 18:13:00,
2013-09-02 14:23:00,76.3,70.0,29.81,WSW,247,1.0,7.0,81,0.06,,,-99.99,WeatherLink 5.7,2013-09-02 18:23:00,
2013-09-02 14:33:00,75.7,70.2,29.81,WSW,247,1.0,4.0,83,0.08,,,-99.99,WeatherLink 5.7,2013-09-02 18:33:00,
2013-09-02 14:43:00,75.2,71.1,29.82,WSW,247,2.0,5.0,87,0.10,,,-99.99,WeatherLink 5.7,2013-09-02 18:43:00,
2013-09-02 14:53:00,75.1,71.6,29.81,WSW,247,1.0,5.0,89,0.11,,,-99.99,WeatherLink 5.7,2013-09-02 18:53:00,
2013-09-02 15:03:00,75.1,72.0,29.81,WSW,247,3.0,6.0,90,0.11,,,-99.99,WeatherLink 5.7,2013-09-02 19:03:00,
2013-09-02 15:13:00,74.9,71.8,29.80,WSW,247,1.0,5.0,90,0.09,,,-99.99,WeatherLink 5.7,2013-09-02 19:13:00,
2013-09-02 15:23:00,74.8,71.0,29.78,SW,225,1.0,5.0,88,0.08,,,-99.99,WeatherLink 5.7,2013-09-02 19:23:00,
2013-09-02 15:33:00,75.0,71.2,29.78,SSW,202,3.0,6.0,88,0.06,,,-99.99,WeatherLink 5.7,2013-09-02 19:33:00,
2013-09-02 15:43:00,75.4,71.9,29.77,SSW,202,2.0,8.0,89,0.04,,,-99.99,WeatherLink 5.7,2013-09-02 19:43:00,
2013-09-02 15:53:00,75.9,72.1,29.78,SSW,202,3.0,8.0,88,0.03,,,-99.99,WeatherLink 5.7,2013-09-02 19:53:00,
2013-09-02 16:03:00,76.1,72.3,29.78,West,270,4.0,10.0,88,0.01,,,-99.99,WeatherLink 5.7,2013-09-02 20:03:00,
2013-09-02 16:13:00,76.3,72.8,29.78,West,270,2.0,7.0,89,0.00,,,-99.99,WeatherLink 5.7,2013-09-02 20:13:00,
2013-09-02 16:23:00,76.6,72.8,29.78,West,270,3.0,9.0,88,0.00,,,-99.99,WeatherLink 5.7,2013-09-02 20:23:00,
2013-09-02 16:33:00,76.9,72.7,29.77,West,270,3.0,7.0,87,0.00,,,-99.99,WeatherLink 5.7,2013-09-02 20:33:00,
2013-09-02 16:43:00,77.5,72.6,29.77,West,270,2.0,7.0,85,0.00,,,-99.99,WeatherLink 5.7,2013-09-02 20:43:00,
2013-09-02 16:53:00,78.2,71.9,29.78,West,270,2.0,7.0,81,0.00,,,-99.99,WeatherLink 5.7,2013-09-02 20:53:00,
2013-09-02 17:03:00,78.7,72.4,29.78,West,270,1.0,5.0,81,0.00,,,-99.99,WeatherLink 5.7,2013-09-02 21:03:00,
2013-09-02 17:13:00,79.4,72.3,29.78,West,270,2.0,6.0,79,0.00,,,-99.99,WeatherLink 5.7,2013-09-02 21:13:00,
2013-09-02 17:23:00,79.4,72.3,29.78,West,270,3.0,6.0,79,0.00,,,-99.99,WeatherLink 5.7,2013-09-02 21:23:00,
2013-09-02 17:33:00,79.6,71.4,29.78,West,270,3.0,8.0,76,0.00,,,-99.99,WeatherLink 5.7,2013-09-02 21:33:00,
2013-09-02 17:43:00,79.1,70.9,29.77,WSW,247,3.0,6.0,76,0.00,,,-99.99,WeatherLink 5.7,2013-09-02 21:43:00,
2013-09-02 17:53:00,79.2,70.2,29.76,WSW,247,2.0,5.0,74,0.00,,,-99.99,WeatherLink 5.7,2013-09-02 21:53:00,
2013-09-02 18:03:00,78.9,70.3,29.76,WSW,247,0.0,3.0,75,0.00,,,-99.99,WeatherLink 5.7,2013-09-02 22:03:00,
2013-09-02 18:13:00,78.6,70.0,29.76,WSW,247,0.0,4.0,75,0.00,,,-99.99,WeatherLink 5.7,2013-09-02 22:13:00,
2013-09-02 18:23:00,78.4,70.6,29.76,WSW,247,0.0,3.0,77,0.00,,,-99.99,WeatherLink 5.7,2013-09-02 22:23:00,
2013-09-02 18:33:00,78.3,70.9,29.77,WSW,247,1.0,5.0,78,0.00,,,-99.99,WeatherLink 5.7,2013-09-02 22:33:00,
2013-09-02 18:43:00,78.3,70.5,29.77,WSW,247,1.0,4.0,77,0.00,,,-99.99,WeatherLink 5.7,2013-09-02 22:43:00,
2013-09-02 18:53:00,78.5,70.7,29.77,WSW,247,0.0,3.0,77,0.00,,,-99.99,WeatherLink 5.7,2013-09-02 22:53:00,
2013-09-02 19:03:00,78.2,70.8,29.77,WSW,247,0.0,2.0,78,0.00,,,-99.99,WeatherLink 5.7,2013-09-02 23:03:00,
2013-09-02 19:13:00,77.9,70.5,29.77,WSW,247,0.0,1.0,78,0.00,,,-99.99,WeatherLink 5.7,2013-09-02 23:13:00,
2013-09-02 19:23:00,77.7,70.3,29.77,WSW,247,0.0,1.0,78,0.00,,,-99.99,WeatherLink 5.7,2013-09-02 23:23:00,
2013-09-02 19:33:00,77.5,70.5,29.77,North,-999,0.0,0.0,79,0.00,,,-99.99,WeatherLink 5.7,2013-09-02 23:33:00,
2013-09-02 19:43:00,77.0,70.4,29.76,North,-999,0.0,1.0,80,0.00,,,-99.99,WeatherLink 5.7,2013-09-02 23:43:00,
2013-09-02 19:53:00,76.6,70.3,29.77,WSW,247,0.0,2.0,81,0.00,,,-99.99,WeatherLink 5.7,2013-09-02 23:53:00,
2013-09-02 20:03:00,76.4,70.1,29.77,WSW,247,0.0,2.0,81,0.00,,,-99.99,WeatherLink 5.7,2013-09-03 00:03:00,
2013-09-02 20:13:00,76.3,70.0,29.77,WSW,247,0.0,2.0,81,0.00,,,-99.99,WeatherLink 5.7,2013-09-03 00:13:00,
2013-09-02 20:23:00,76.0,69.7,29.77,WSW,247,0.0,1.0,81,0.00,,,-99.99,WeatherLink 5.7,2013-09-03 00:23:00,
2013-09-02 20:33:00,75.8,69.6,29.77,WSW,247,0.0,1.0,81,0.00,,,-99.99,WeatherLink 5.7,2013-09-03 00:33:00,
2013-09-02 20:43:00,75.7,69.1,29.77,WSW,247,1.0,3.0,80,0.00,,,-99.99,WeatherLink 5.7,2013-09-03 00:43:00,
2013-09-02 20:53:00,75.5,69.3,29.77,WSW,247,0.0,1.0,81,0.00,,,-99.99,WeatherLink 5.7,2013-09-03 00:53:00,
2013-09-02 21:03:00,75.2,69.0,29.77,WSW,247,0.0,2.0,81,0.00,,,-99.99,WeatherLink 5.7,2013-09-03 01:03:00,
2013-09-02 21:13:00,75.1,68.9,29.78,WSW,247,0.0,2.0,81,0.00,,,-99.99,WeatherLink 5.7,2013-09-03 01:13:00,
2013-09-02 21:23:00,74.9,68.7,29.78,WSW,247,0.0,2.0,81,0.00,,,-99.99,WeatherLink 5.7,2013-09-03 01:23:00,
2013-09-02 21:33:00,74.7,68.8,29.77,WSW,247,0.0,2.0,82,0.00,,,-99.99,WeatherLink 5.7,2013-09-03 01:33:00,
2013-09-02 21:43:00,74.7,69.2,29.77,WSW,247,0.0,3.0,83,0.00,,,-99.99,WeatherLink 5.7,2013-09-03 01:43:00,
2013-09-02 21:53:00,74.8,69.3,29.77,WSW,247,0.0,1.0,83,0.00,,,-99.99,WeatherLink 5.7,2013-09-03 01:53:00,
2013-09-02 22:03:00,74.7,69.2,29.77,WSW,247,0.0,3.0,83,0.00,,,-99.99,WeatherLink 5.7,2013-09-03 02:03:00,
2013-09-02 22:13:00,74.6,69.4,29.78,WSW,247,0.0,5.0,84,0.00,,,-99.99,WeatherLink 5.7,2013-09-03 02:13:00,
2013-09-02 22:23:00,74.5,69.7,29.79,WSW,247,1.0,4.0,85,0.00,,,-99.99,WeatherLink 5.7,2013-09-03 02:23:00,
2013-09-02 22:33:00,74.5,70.0,29.78,WSW,247,1.0,4.0,86,0.00,,,-99.99,WeatherLink 5.7,2013-09-03 02:33:00,
2013-09-02 22:43:00,74.3,69.8,29.78,WSW,247,0.0,4.0,86,0.00,,,-99.99,WeatherLink 5.7,2013-09-03 02:43:00,
2013-09-02 22:53:00,74.3,70.2,29.78,WSW,247,0.0,2.0,87,0.00,,,-99.99,WeatherLink 5.7,2013-09-03 02:53:00,
2013-09-02 23:03:00,74.3,70.2,29.78,WSW,247,0.0,3.0,87,0.00,,,-99.99,WeatherLink 5.7,2013-09-03 03:03:00,
2013-09-02 23:13:00,74.5,70.4,29.79,WSW,247,1.0,4.0,87,0.00,,,-99.99,WeatherLink 5.7,2013-09-03 03:13:00,
2013-09-02 23:23:00,74.4,70.3,29.78,WSW,247,1.0,4.0,87,0.00,,,-99.99,WeatherLink 5.7,2013-09-03 03:23:00,
2013-09-02 23:33:00,74.3,70.5,29.78,WSW,247,0.0,5.0,88,0.00,,,-99.99,WeatherLink 5.7,2013-09-03 03:33:00,
2013-09-02 23:43:00,74.4,70.3,29.79,WSW,247,1.0,4.0,87,0.00,,,-99.99,WeatherLink 5.7,2013-09-03 03:43:00,
2013-09-02 23:53:00,74.2,70.4,29.79,WSW,247,1.0,3.0,88,0.00,,,-99.99,WeatherLink 5.7,2013-09-03 03:53:00,